Tracking 20376 objects as of 22-Feb-2020
HD Live streaming from Space Station
objects crossing your sky now
Track the group of recently launched Starlink satellites

STARLINK-1115

Track STARLINK-1115 now!
10-day predictions
STARLINK-1115 is classified as:


NORAD ID: 44973
Int'l Code: 2020-001BM
Perigee: 355.6 km
Apogee: 358.0 km
Inclination: 53.0 °
Period: 91.5 minutes
Semi major axis: 6727 km
RCS: Unknown
Launch date: January 7, 2020
Source: United States (US)
Launch site: AIR FORCE EASTERN TEST RANGE (AFETR)
aabbcc
Your satellite tracking list
Your tracking list is empty




NASA's NSSDC Master Catalog

Two Line Element Set (TLE):
1 44973U 20001BM  20053.58334491 -.00004916  00000-0 -30582-4 0  9991
2 44973  52.9957 165.5543 0001774  11.0823 200.4733 15.73222078  7338
Source of the keplerian elements: AFSPC